STARLINK-32758 (62744 NORAD) Tracking and Keplerian Element Data

This shows tracking and keplerian element data for the satellite.

Feedback or suggestion? Click here.




ElementValue
Catalog62744
NameSTARLINK-32758
Epoch Orbit221
Epoch Day35.25001157
Epoch Year2025
RAAN253.8466
Inclination42.9995
Eccentricity0.0001704
Argument of Perigee277.888
Mean Anonmoly98.9768
Mean Motion15.64338862
Decay Rate-0.01475027
L11 62744U 25014K 25035.25001157 -.01475027 00000+0 -16741-1 0 9998
L22 62744 42.9995 253.8466 0001704 277.8880 98.9768 15.64338862 2217



Live tracking and technical data element details for STARLINK-32758 (NORAD 62744). STARLINK-32758 can be tracked NOW for your location showing map with azimuth and elevation plus other details from your city location.







IsCatalogInMostPopularTable: catalog: 62744, numindb: 6
Update: records affected: 1



GetName: 62744 STARLINK-32758

Hit Count: updated at: Sun, 09 Feb 2025 14:20:42 GMT